TimeEDT,TemperatureF,Dew PointF,Humidity,Sea Level PressureIn,VisibilityMPH,Wind Direction,Wind SpeedMPH,Gust SpeedMPH,PrecipitationIn,Events,Conditions,WindDirDegrees,DateUTC
12:51 AM,37.4,35.6,93,29.67,10.0,NNW,4.6,-,N/A,,Overcast,330,2012-11-03 04:51:00
1:46 AM,37.4,35.6,93,29.67,10.0,WNW,6.9,-,N/A,,Overcast,290,2012-11-03 05:46:00
1:51 AM,37.0,35.1,93,29.70,10.0,NW,4.6,-,N/A,,Overcast,310,2012-11-03 05:51:00
2:24 AM,37.4,35.6,93,29.67,10.0,NW,6.9,-,N/A,,Overcast,320,2012-11-03 06:24:00
2:51 AM,37.0,35.1,93,29.71,10.0,NW,10.4,-,N/A,,Overcast,310,2012-11-03 06:51:00
3:17 AM,37.4,35.6,93,29.68,9.0,NNW,5.8,-,N/A,,Overcast,330,2012-11-03 07:17:00
3:21 AM,37.4,35.6,93,29.68,10.0,NW,6.9,-,N/A,,Overcast,320,2012-11-03 07:21:00
3:51 AM,37.0,35.1,93,29.71,10.0,WNW,8.1,-,N/A,,Overcast,300,2012-11-03 07:51:00
3:58 AM,37.4,35.6,93,29.68,10.0,NW,8.1,-,N/A,,Overcast,310,2012-11-03 07:58:00
4:13 AM,37.4,35.6,93,29.69,10.0,NNW,5.8,-,N/A,,Overcast,330,2012-11-03 08:13:00
4:51 AM,37.0,34.0,89,29.72,10.0,NW,9.2,-,N/A,,Overcast,310,2012-11-03 08:51:00
5:51 AM,36.0,34.0,93,29.74,10.0,WNW,13.8,20.7,N/A,,Overcast,300,2012-11-03 09:51:00
6:51 AM,36.0,33.1,89,29.75,10.0,NW,10.4,19.6,0.00,,Overcast,310,2012-11-03 10:51:00
7:17 AM,35.6,33.8,93,29.73,10.0,NW,13.8,21.9,N/A,,Overcast,320,2012-11-03 11:17:00
7:51 AM,35.1,33.1,92,29.78,10.0,NW,9.2,-,N/A,,Overcast,310,2012-11-03 11:51:00
8:21 AM,35.6,33.8,93,29.75,10.0,NW,6.9,-,N/A,,Overcast,320,2012-11-03 12:21:00
8:51 AM,36.0,33.1,89,29.80,10.0,NW,8.1,-,N/A,,Mostly Cloudy,320,2012-11-03 12:51:00
9:08 AM,35.6,33.8,93,29.77,10.0,NW,6.9,-,N/A,,Mostly Cloudy,310,2012-11-03 13:08:00
9:51 AM,37.0,34.0,89,29.81,10.0,NNW,8.1,-,N/A,,Overcast,330,2012-11-03 13:51:00
10:22 AM,37.4,33.8,87,29.78,10.0,NW,8.1,-,N/A,,Overcast,320,2012-11-03 14:22:00
10:51 AM,39.0,33.1,79,29.82,10.0,NW,12.7,19.6,N/A,,Overcast,320,2012-11-03 14:51:00
11:18 AM,37.4,33.8,87,29.79,10.0,NW,13.8,-,N/A,,Overcast,310,2012-11-03 15:18:00
11:51 AM,39.0,32.0,76,29.82,10.0,NNW,11.5,20.7,N/A,,Overcast,330,2012-11-03 15:51:00
12:51 PM,39.0,32.0,76,29.82,10.0,NW,12.7,19.6,N/A,,Overcast,320,2012-11-03 16:51:00
1:51 PM,39.9,33.1,77,29.81,10.0,NW,10.4,18.4,N/A,,Overcast,320,2012-11-03 17:51:00
2:51 PM,39.0,32.0,76,29.82,10.0,NW,10.4,-,N/A,,Overcast,320,2012-11-03 18:51:00
3:21 PM,39.2,30.2,70,29.79,10.0,NW,11.5,20.7,N/A,,Overcast,320,2012-11-03 19:21:00
3:51 PM,37.9,30.9,76,29.83,10.0,NNW,9.2,18.4,N/A,,Overcast,330,2012-11-03 19:51:00
4:04 PM,37.4,32.0,81,29.80,10.0,NW,6.9,18.4,N/A,,Overcast,320,2012-11-03 20:04:00
4:16 PM,37.4,32.0,81,29.80,10.0,NW,11.5,-,N/A,,Overcast,310,2012-11-03 20:16:00
4:51 PM,37.0,32.0,82,29.84,10.0,NW,9.2,-,0.00,,Overcast,310,2012-11-03 20:51:00
5:03 PM,37.4,32.0,81,29.81,10.0,WNW,10.4,-,N/A,,Overcast,300,2012-11-03 21:03:00
5:51 PM,37.0,32.0,82,29.86,10.0,WNW,5.8,-,N/A,,Overcast,300,2012-11-03 21:51:00
6:44 PM,35.6,33.8,93,29.82,10.0,WNW,10.4,21.9,N/A,,Overcast,300,2012-11-03 22:44:00
6:51 PM,36.0,33.1,89,29.86,10.0,NW,12.7,19.6,N/A,,Overcast,310,2012-11-03 22:51:00
7:01 PM,35.6,33.8,93,29.83,10.0,NW,11.5,21.9,N/A,,Overcast,310,2012-11-03 23:01:00
7:51 PM,36.0,33.1,89,29.88,10.0,NW,9.2,21.9,N/A,,Overcast,320,2012-11-03 23:51:00
8:51 PM,36.0,33.1,89,29.89,10.0,NW,10.4,23.0,N/A,,Overcast,320,2012-11-04 00:51:00
9:34 PM,35.6,33.8,93,29.86,10.0,NNW,8.1,17.3,N/A,,Overcast,330,2012-11-04 01:34:00
9:51 PM,35.1,33.1,92,29.90,10.0,NW,6.9,-,0.00,,Overcast,320,2012-11-04 01:51:00
10:49 PM,35.6,33.8,93,29.86,10.0,NW,8.1,-,0.00,,Overcast,320,2012-11-04 02:49:00
10:51 PM,35.1,33.1,92,29.90,10.0,NW,11.5,-,0.00,,Overcast,310,2012-11-04 02:51:00
11:15 PM,35.6,33.8,93,29.86,10.0,WNW,8.1,-,N/A,,Overcast,300,2012-11-04 03:15:00
11:51 PM,35.1,33.1,92,29.91,10.0,WNW,9.2,-,N/A,,Overcast,300,2012-11-04 03:51:00